Torna al catalogo

WEILI KONGJIAN 05-05

AttivoNavigazioneLEO
NORAD 69586·PAYLOAD·🇨🇳 China
Questo nome del satellite non è ancora stato confermato da fonti ufficiali.

Lanciato Jun 17, 2026 da Jiuquan Satellite Launch Center

Loading…

Prossimi Passaggi (prossime 24 ore)

TLE

AggiornatoSource: Space-Track

Epoca: Sep 14, 2026, 03:49 UTC

1 69586U 26138E   26257.15961683 -.00000167  00000-0 -66542-5 0  9999
2 69586  55.1405 312.4120 0012408  97.8132 262.4251 14.16001840 12622

Traccia WEILI KONGJIAN 05-05 in tempo reale con AllMySat

Download on the App Store